Location: Bluff Heights
(33.7692°N, 118.1592°W)
Time: 09:49:35
(UTC+00:00)

Tiros 1 - Pass Details

Date: 26 July 2021
Orbit: 630 x 663 km, 48.4° (Epoch: 22 September)

Event Time Altitude Azimuth Distance (km) Brightness Sun altitude
Rises 05:57:33 0° 286° (WNW) 2,962 11.2 -29.5°
Reaches altitude 10° 06:00:46 10° 309° (NW) 2,045 10.5 -29.8°
Maximum altitude 06:03:39 16° 347° (NNW) 1,681 10.0 -30.1°
Drops below altitude 10° 06:06:32 10° 25° (NNE) 2,034 10.1 -30.5°
Sets 06:09:42 0° 47° (NE) 2,936 10.7 -30.8°
